Location: Moscow
(55.7500°N, 37.5830°E)
Time: 11:01:48
(UTC+03:00)

Vanguard 3 - Pass Details

Date: 04 December 2021
Orbit: 508 x 3260 km, 33.3° (Epoch: 19 January)

Event Time Altitude Azimuth Distance (km) Brightness Sun altitude
Rises 03:01:28 0° 204° (SSW) 6,998 - -45.2°
Reaches altitude 10° 03:07:46 10° 191° (SSW) 6,150 - -44.4°
Exits shadow 03:13:04 17° 177° (S) 5,577 11.1 -43.8°
Maximum altitude 03:20:34 22° 151° (SSE) 5,123 11.1 -42.8°
Drops below altitude 10° 03:32:11 10° 110° (ESE) 5,571 11.8 -41.4°
Sets 03:37:23 0° 97° (E) 6,209 12.3 -40.7°
